Вернуться в каталог

OKEAN O

АктивенНаукаSSO
NORAD 25860·PAYLOAD·🇷🇺 Russia

Запущен Jul 17, 1999 с Baikonur Cosmodrome

Loading…

Ближайшие Пролёты (ближайшие 24 часа)

TLE

СвежийSource: Space-Track

Эпоха: Sep 14, 2026, 15:03 UTC

1 25860U 99039A   26257.62776659  .00000412  00000-0  60504-4 0  9997
2 25860  97.9225 315.3592 0001947  89.5266 270.6169 14.80552538462343

Отслеживайте OKEAN O в реальном времени с AllMySat

Download on the App Store